Location: Albany
(35.0000°S, 118.0000°E)
Time: 07:34:20
(UTC-05:00)

SJ-6B - Visible Passes

Search period start: 06 March 2015 00:00
Search period end: 16 March 2015 01:00
Orbit: 515 x 594 km, 97.8° (Epoch: 05 March)

Date Brightness Start Highest point End Pass type
(mag) Time Alt. Az. Time Alt. Az. Time Alt. Az.
06 Mar 4.4 16:29:51 10° NE 16:33:47 44° ESE 16:37:52 10° S visible
07 Mar 4.6 16:27:03 10° NE 16:30:57 40° ESE 16:34:58 10° S visible
08 Mar 4.8 17:24:16 10° NE 17:28:06 37° ESE 17:32:04 10° S visible
09 Mar 5.0 17:21:28 10° NE 17:25:15 34° ESE 17:29:09 10° S visible
10 Mar 5.1 17:18:41 10° NE 17:22:24 32° ESE 17:26:13 10° S visible
11 Mar 5.3 17:15:54 10° NE 17:19:32 30° ESE 17:23:17 10° S visible
12 Mar 5.4 17:13:08 10° NE 17:16:40 27° ESE 17:20:19 10° SSE visible
13 Mar 5.6 17:10:22 10° NE 17:13:48 25° ESE 17:17:21 10° SSE visible
14 Mar 5.7 17:07:35 10° ENE 17:10:55 24° ESE 17:14:22 10° SSE visible
15 Mar 5.8 17:04:50 10° ENE 17:08:02 22° ESE 17:11:22 10° SSE visible
